Location: Newark
(55.2875°N, 3.1864°W)
Time: 16:46:02
(UTC+00:00)

ISS - Pass Details

Date: 01 February 2020
Orbit: 415 x 422 km, 51.6° (Epoch: 23 February)

Event Time Altitude Azimuth Distance (km) Brightness Sun altitude
Rises 17:26:13 0° 257° (WSW) 2,379 2.4 -5.8°
Reaches altitude 10° 17:28:22 10° 251° (WSW) 1,513 1.0 -6.1°
Maximum altitude 17:31:38 45° 178° (S) 589 -2.8 -6.5°
Drops below altitude 10° 17:34:53 10° 104° (ESE) 1,510 -1.4 -6.9°
Enters shadow 17:35:42 - 101° (ESE) 1,832 -1.0 -7.0°
